Randolph AFB, TX

4:20 PM CST on November 18, 2017 (GMT -0600)
Randolph Air Force Base

Weather History for KRND - January, 2012

Change the Weather History Date:

Monday, January 2, 2012

  Actual Average Record
Temperature  
Mean Temperature 50 °F -  
Max Temperature 62 °F 61 °F 76 °F (2017)
Min Temperature 34 °F 41 °F 24 °F (2008)
Degree Days  
Heating Degree Days 16    
Moisture  
Dew Point 24 °F    
Average Humidity 40    
Maximum Humidity 76    
Minimum Humidity 20    
Precipitation  
Precipitation 0.00 in - - ()
Sea Level Pressure  
Sea Level Pressure 30.63 in    
Wind  
Wind Speed 8 mph (NNE)    
Max Wind Speed 14 mph    
Max Gust Speed 21 mph    
Visibility 10 miles    
Events      
Averages and records for this station are not official NWS values.
T = Trace of Precipitation, MM = Missing Value Source: NWS Daily Summary

Daily Weather History Graph

Daily Weather History Graph

Search for Another Location

Airport or City:

Trip Planner

Search our weather history database for the weather conditions in past years. The results will help you decide how hot, cold, wet, or windy it might be!

Date:

Astronomy

Jan. 02, 2012 Rise Set
Actual Time 7:28 AM CST 5:46 PM CST
Civil Twilight 7:02 AM CST 6:12 PM CST
Nautical Twilight 6:32 AM CST 6:41 PM CST
Astronomical Twilight 6:03 AM CST 7:10 PM CST
Moon 12:52 PM CST (1/2) 1:34 AM CST (1/2)
Length of Visible Light 11h 10m
Length of Day
10h 17m
Waxing Gibbous, 64% of the Moon is Illuminated
Jan 2
Waxing Gibbous
Jan 9
Full
Jan 16
Last Quarter
Jan 23
New
Jan 30
First Quarter

Hourly Weather History & Observations

Time (CST) Temp. Windchill Dew Point Humidity Pressure Visibility Wind Dir Wind Speed Gust Speed Precip Events Conditions
12:55 AM 45.1 °F 39.9 °F 27.1 °F 49% 30.57 in 10.0 mi North 10.4 mph - N/A   Clear
1:55 AM 45.7 °F 40.6 °F 26.6 °F 47% 30.57 in 10.0 mi North 10.4 mph - N/A   Clear
2:55 AM 44.4 °F 39.5 °F 26.1 °F 49% 30.58 in 10.0 mi North 9.2 mph - N/A   Clear
3:55 AM 45.0 °F 40.6 °F 24.8 °F 45% 30.58 in 10.0 mi North 8.1 mph - N/A   Clear
4:55 AM 44.1 °F 39.0 °F 23.7 °F 45% 30.59 in 10.0 mi North 9.2 mph - N/A   Clear
5:55 AM 43.7 °F 39.7 °F 22.1 °F 42% 30.61 in 10.0 mi Variable 6.9 mph - N/A   Clear
6:55 AM 43.7 °F 38.6 °F 20.8 °F 40% 30.63 in 10.0 mi NNE 9.2 mph - N/A   Clear
7:55 AM 43.7 °F 39.7 °F 21.6 °F 41% 30.68 in 10.0 mi NNE 6.9 mph - N/A   Clear
8:55 AM 48.0 °F - 23.4 °F 38% 30.71 in 10.0 mi NNE 8.1 mph - N/A   Clear
9:55 AM 52.5 °F - 24.4 °F 34% 30.73 in 10.0 mi NNE 13.8 mph - N/A   Clear
10:55 AM 56.3 °F - 23.9 °F 29% 30.72 in 10.0 mi NE 11.5 mph - N/A   Clear
11:55 AM 58.6 °F - 22.3 °F 25% 30.70 in 10.0 mi NE 13.8 mph 20.7 mph N/A   Clear
12:55 PM 59.5 °F - 21.9 °F 23% 30.67 in 10.0 mi North 5.8 mph - N/A   Clear
1:55 PM 61.0 °F - 20.8 °F 21% 30.64 in 10.0 mi NE 8.1 mph - N/A   Clear
2:55 PM 62.2 °F - 22.1 °F 21% 30.62 in 10.0 mi North 8.1 mph - N/A   Clear
3:55 PM 61.7 °F - 20.5 °F 20% 30.61 in 10.0 mi NE 6.9 mph - N/A   Clear
4:55 PM 61.0 °F - 22.3 °F 23% 30.60 in 10.0 mi NNE 5.8 mph - N/A   Clear
5:55 PM 55.9 °F - 22.1 °F 27% 30.59 in 10.0 mi NE 4.6 mph - N/A   Clear
6:55 PM 50.5 °F - 24.3 °F 36% 30.61 in 10.0 mi Calm Calm - N/A   Clear
7:55 PM 47.7 °F - 24.3 °F 40% 30.61 in 10.0 mi Calm Calm - N/A   Clear
8:55 PM 43.5 °F 41.9 °F 26.2 °F 51% 30.62 in 10.0 mi NNW 3.5 mph - N/A   Clear
9:55 PM 38.3 °F 33.9 °F 28.0 °F 67% 30.63 in 10.0 mi NNW 5.8 mph - N/A   Clear
10:55 PM 37.0 °F 34.5 °F 27.5 °F 68% 30.64 in 10.0 mi NW 3.5 mph - N/A   Clear
11:55 PM 34.3 °F 29.2 °F 27.3 °F 76% 30.63 in 10.0 mi NNW 5.8 mph - N/A   Clear